Location: Isola Pescaroli
(45.0500°N, 10.1667°E)
Time: 20:34:01
(UTC+00:00)

COSMO-SKYMED 1 - Pass Details

Date: 03 March 2021
Orbit: 621 x 623 km, 97.9° (Epoch: 17 April)

Event Time Altitude Azimuth Distance (km) Brightness Sun altitude
Rises 17:43:21 0° 10° (N) 2,916 5.9 -6.8°
Reaches altitude 10° 17:45:33 10° 8° (N) 2,005 5.1 -7.2°
Maximum altitude 17:49:53 66° 286° (WNW) 683 3.1 -7.9°
Drops below altitude 10° 17:54:10 10° 205° (SSW) 1,988 5.5 -8.7°
Sets 17:56:21 0° 202° (SSW) 2,889 6.3 -9.1°
